Location: Ipswich
(52.0579°N, 1.1528°E)
Time: 10:00:41
(UTC+01:00)

ISS - Pass Details

Date: 18 May 2026
Orbit: 414 x 424 km, 51.6° (Epoch: 8 May)

Event Time Altitude Azimuth Distance (km) Brightness Sun altitude
Rises 21:33:36 0° 276° (W) 2,354 1.0 -6.3°
Reaches altitude 10° 21:35:42 10° 275° (W) 1,491 -0.1 -6.5°
Maximum altitude 21:39:02 76° 190° (S) 433 -3.8 -6.9°
Drops below altitude 10° 21:42:23 10° 105° (ESE) 1,490 -1.5 -7.2°
Enters shadow 21:43:01 - 104° (ESE) 1,753 -1.1 -7.3°
